Preview of NWS' New Version of Forecast
This preview is not operational and should not be used for support decisions.

Regional Weather Roundup (RWR)

Issued by National Weather Service (NWS)

                            
000
ASUS44 KMEG 201410
RWRTN 
TENNESSEE HOURLY STATE WEATHER ROUNDUP
NATIONAL WEATHER SERVICE MEMPHIS TN
900 AM CDT WED MAR 20 2019

TNZ002-004-019-021-049-052-054-088>092-201500-
WEST TENNESSEE
  
CITY           SKY/WX    TMP DP  RH WIND       PRES   REMARKS
MEMPHIS INTL   FAIR      51  28  41 S10       30.24R                  
NWS MEMPHIS      N/A     47 N/A N/A MISG        N/A                   
JACKSON        FAIR      49  31  49 S7        30.24S                  
DYERSBURG      FAIR      49  29  46 S6        30.24R                  
SOMERVILLE     SUNNY     50  27  40 S10       30.23R                  
COVINGTON      SUNNY     46  32  57 S6        30.23F                  
UNION CITY     SUNNY     48  30  49 S9        30.21F                  
BOLIVAR        SUNNY     45  32  61 CALM      30.24S                  
PARIS          SUNNY     48  27  43 S9        30.22F                  
HUNTINGDON     SUNNY     48  28  46 S5        30.23S                  
LEXINGTON      SUNNY     43  32  65 VRB3      30.24S                  
SAVANNAH       SUNNY     43  32  65 S5        30.25F                  
$$

TNZ008-025-027-028-033-062-065-066-201500-
NORTH MIDDLE TENNESSEE
  
CITY           SKY/WX    TMP DP  RH WIND       PRES   REMARKS
NASHVILLE      FAIR      43  29  57 CALM      30.26S                  
DICKSON        SUNNY     50  21  32 S10       30.22S                  
CLARKSVILLE    FAIR      42  31  64 S6        30.23F                  
LEBANON        SUNNY     43  28  56 CALM      30.24F                  
SMYRNA         FAIR      40  32  73 SE3       30.27F                  
MURFREESBORO   SUNNY     43  28  56 CALM      30.25S                  
COOKEVILLE     SUNNY     43  30  61 CALM      30.25S                  
LIVINGSTON     SUNNY     48  19  32 SW6       30.23F                  
GALLATIN       SUNNY     39  30  70 CALM      30.28F                  
CROSSVILLE     FAIR      46  22  38 VRB3      30.26S                  
ROCKWOOD       SUNNY     45  19  36 CALM      30.26S                  
$$

TNZ061-075-076-078-094-096-097-201500-
SOUTH MIDDLE TENNESSEE
  
CITY           SKY/WX    TMP DP  RH WIND       PRES   REMARKS
LAWRENCEBURG   SUNNY     45  30  57 CALM      30.25S                  
LEWISBURG      SUNNY     41  32  70 CALM      30.26S                  
FAYETTEVILLE   SUNNY     46  28  49 SE5       30.25F                  
TULLAHOMA      SUNNY     46  27  46 S7        30.25F                  
WINCHESTER     SUNNY     46  28  49 SE5       30.26S                  
MCMINNVILLE    SUNNY     41  32  70 CALM      30.26S                  
COLUMBIA       SUNNY     41  36  81 CALM      30.25S                  
SHELBYVILLE    SUNNY     45  30  57 CALM      30.26S                  
$$

TNZ017-018-042-046-047-201500-
NORTHEAST TENNESSEE
  
CITY           SKY/WX    TMP DP  RH WIND       PRES   REMARKS
TRI CITIES     FAIR      40  26  57 CALM      30.29F                  
ELIZABETHTON   FAIR      43  25  49 E5        30.29S                  
GREENEVILLE    SUNNY     45  21  39 CALM      30.27S                  
$$

TNZ012-013-036-069-073-074-201500-
CENTRAL EAST TENNESSEE
  
CITY           SKY/WX    TMP DP  RH WIND       PRES   REMARKS
KNOXVILLE      FAIR      41  28  60 CALM      30.29S                  
OAK RIDGE      FAIR      39  29  67 CALM      30.31S                  
DOWNTOWN KNOXV SUNNY     39  32  75 CALM      30.30F                  
GATLINBURG     SUNNY     39  28  65 CALM      30.29F                  
MORRISTOWN     SUNNY     43  25  49 CALM      30.27F                  
JACKSBORO      SUNNY     39  28  65 CALM      30.32S                  
$$

TNZ083-085-099-201500-
SOUTHEAST TENNESSEE
  
CITY           SKY/WX    TMP DP  RH WIND       PRES   REMARKS
CHATTANOOGA    FAIR      42  31  64 CALM      30.30F                  
DAYTON         SUNNY     39  30  70 CALM      30.30S HAZE             
$$

SKY/WX REPORTED AS FAIR MEANS FEW OR NO CLOUDS BELOW
12 THOUSAND FEET.